Regional Weather Roundup
Issued by NWS Grand Forks, ND

Home | Current Version | Previous Version | Text Only | Print | Product List | Glossary Off
Versions: 1 2 3 4 5 6 7 8 9 10 11 12 13 14 15 16 17 18 19 20 21 22 23 24 25 26 27 28 29 30 31 32 33 34 35 36 37 38 39 40 41 42 43 44 45 46 47 48 49 50

000
ASUS43 KFGF 251431
RWRFGF
PRAIRIE TO PINES  WEATHER ROUNDUP
NATIONAL WEATHER SERVICE EASTERN NORTH DAKOTA/GRAND FORKS ND
900 AM CDT MON SEP 25 2017

 **SATELLITE DATA USED TO AUGMENT SKY COVER AT AUTOMATED STATIONS**
 *****  WEATHER ACROSS EASTERN NORTH DAKOTA  *****

CITY           SKY/WX    TMP DP  RH WIND       PRES   REMARKS
GRAND FORKS    CLOUDY    49  46  90 N16       30.11F
GRAND FRKS AFB CLOUDY    48  45  87 N13       30.13S
DEVILS LAKE    CLOUDY    47  43  86 N10       30.17R
FARGO          CLOUDY    50  49  96 N12       30.11S
WAHPETON ARPT  CLOUDY    50  45  81 N12       30.09F
$$

 ***** WEATHER ACROSS CENTRAL AND WESTERN NORTH DAKOTA  *****

CITY           SKY/WX    TMP DP  RH WIND       PRES   REMARKS
BISMARCK       CLOUDY    49  45  86 NE5       30.16F
MINOT          CLOUDY    48  45  89 NE6       30.16S
JAMESTOWN      CLOUDY    49  43  80 N9        30.12F
MINOT AFB      CLOUDY    46  44  92 E5        30.15R
GARRISON         N/A     47  44  90 NE3       30.15F
WILLISTON      CLOUDY    46  44  93 CALM      30.17R
DICKINSON      CLOUDY    45  42  89 N3        30.13S
HETTINGER      CLOUDY    43  38  82 S5        30.16R
$$

 *****  OTHER AIRPORT OBSERVATIONS IN OUR AREA  *****

CITY           SKY/WX    TMP DP  RH WIND       PRES   REMARKS
WALHALLA       FAIR     N/A N/A N/A N8        30.16R
GRAFTON AIRPOR NOT AVBL
VALLEY CITY AR NOT AVBL
CANDO          CLOUDY    46  48 100 N6        30.18S
CAVALIER APRT  CLOUDY    46  46 100 N9        30.16R
GWINNER        CLOUDY    50  48  93 N7        30.11F
SHEYENNE NWR     N/A     49  49 100 N6        29.95S
ROLLA          PTSUNNY   43  43 100 N5        30.18S
 ***** THE ABOVE OBSERVATIONS ARE NON NWS ARE NOT QUALITY
       CONTROLLED AND MAY MIS-REPORT RAIN FOR SNOW...
$$

  *****  WEATHER ACROSS NORTHERN MINNESOTA  *****

CITY           SKY/WX    TMP DP  RH WIND       PRES   REMARKS
FLAG ISLAND    PTSUNNY   48  45  87 N9        30.08R
WARROAD        FAIR      46  43  87 NW8       30.10F
ROSEAU         CLOUDY    46  43  87 NW9       30.11S
HALLOCK          N/A     48  46  93 N12       30.14R
THF RVR FALLS  CLOUDY    47  45  93 N10       30.11R
BAUDETTE       LGT RAIN  50  50 100 N7        30.07R
WASKISH        CLOUDY    48  46  93 NW6       30.08R
CROOKSTON      CLOUDY    48  46  93 N10       30.12R
STEPHEN NDAWN    N/A     48  45  87 N12         N/A
GREENBUSH NDAW   N/A     48  45  87 N7          N/A
$$
  *****  WEATHER ACROSS CENTRAL AND WEST MINNESOTA  *****

CITY           SKY/WX    TMP DP  RH WIND       PRES   REMARKS
FOSSTON        CLOUDY    46  45  93 N9        30.11R
BEMIDJI        CLOUDY    47  47  98 NW9       30.07R FOG
PARK RAPIDS    CLOUDY    51  47  86 N8        30.06S
ELBOW LAKE     CLOUDY    49  48  96 NW9       30.08R
WADENA         PTSUNNY   48  48 100 NW6       30.05F
DETROIT LAKES  CLOUDY    46  46 100 N9G18     30.09S FOG
MOORHEAD       CLOUDY    48  46  93 N10       30.12S FOG
FERGUS FALLS   CLOUDY    48  48 100 N8        30.09R
MORRIS MN      FAIR      52  48  87 N15       30.05S
STAPLES        LGT RAIN  48  48 100 NW7       30.05S
$$
  *****  WEATHER ELSEWHERE ACROSS MINNESOTA  *****

CITY           SKY/WX    TMP DP  RH WIND       PRES   REMARKS
DULUTH         LGT RAIN  52  52 100 NW12      29.99F
INTRNTL FALLS  CLOUDY    51  49  92 NW7       30.03S
ELY            PTSUNNY   52  50  93 NW3       30.02R
CLOQUET        RAIN      54  50  87 NW8       30.01R
WHEATON        PTSUNNY   50  46  87 N12       30.10F
BRAINERD       LGT RAIN  51  49  92 N12       30.03F
HIBBING        CLOUDY    50  48  93 NW8       30.04R
ALEXANDRIA     CLOUDY    51  48  89 N13       30.06S
SAINT CLOUD    CLOUDY    53  52  96 NW9       30.05R
MINNEAPOLIS    CLOUDY    60  59  96 NW10      30.00R
$$

  *****  WEATHER ACROSS SOUTH DAKOTA  *****

CITY           SKY/WX    TMP DP  RH WIND       PRES   REMARKS
SIOUX FALLS    CLOUDY    53  52  96 N9        30.02S
BROOKINGS      CLOUDY    50  48  93 N13       30.05S
WATERTOWN      CLOUDY    49  47  93 N16G23    30.04F
HURON          CLOUDY    50  47  89 N13       30.08S
SISSETON         N/A     51  49  92 N12       30.08S
ABERDEEN       CLOUDY    50  47  89 N9        30.12S
MITCHELL       CLOUDY    50  49  96 N14       30.08R
PIERRE         PTSUNNY   49  44  83 NW9       30.12R
MOBRIDGE       CLOUDY    50  47  89 N6        30.11F
RAPID CITY     CLOUDY    45  43  93 CALM      30.14R
$$

  *****  SOME WEATHER IN NEARBY STATES *****

CITY           SKY/WX    TMP DP  RH WIND       PRES   REMARKS
GLASGOW MT     CLOUDY    40  38  93 E8        30.12S
GREAT FALLS MT FAIR      40  31  70 S10       30.04S
CHEYENNE WY    PTSUNNY   39  37  92 N5        30.11S
SCOTTSBLUFF NE CLOUDY    44  40  85 NE7       30.14R
OMAHA NE       CLOUDY    63  59  87 NE8       29.95S
DES MOINES IA  FAIR      71  65  81 W3        29.95R
DAVENPORT IA   FAIR      74  63  68 SE3       30.01R
CHICAGO IL     FAIR      77  59  53 SE5       30.02R
EAU CLAIRE WI  FAIR      69  65  86 NE3       29.96S
LA CROSSE WI   FAIR      73  65  75 E3        29.95S
$$

  *****  SOME NATIONAL WEATHER *****

CITY           SKY/WX    TMP DP  RH WIND       PRES   REMARKS
LA GUARDIA NY  FAIR      77  66  68 NE8       30.07S
RALEIGH NC     PTSUNNY   73  64  73 NE7       30.01F
ATLANTA GA     FAIR      76  62  62 E13       30.05R
NEW ORLEANS LA FAIR      80  71  74 NE10      29.92S
OKLAHOMA CITY  PTSUNNY   71  65  81 S9        29.92S
ALBUQUERQUE NM FAIR      52  23  32 NE5       30.01R
SALT LAKE CITY FAIR      42  40  92 SE6       30.13R
LOS ANGELES CA FAIR      64  39  39 NE3       29.85R
BOISE ID       FAIR      41  33  73 S8        30.10R
SEATTLE WA     LGT RAIN  57  53  86 S7        30.10S
$$

*** WEATHER ACROSS MANITOBA...SASKATCHEWAN AND ONTARIO ***
                ***ONTARIO***

CITY           SKY/WX    TMP DP  RH WIND       PRES   REMARKS
GERALDTON      CLOUDY    64  59  82 W10G18    29.89R
THUNDER BAY    PTSUNNY   66  59  77 W7        29.92R
SIOUX LOOKOUT  CLOUDY    50  48  93 N5        30.03R
TORONTO        PTSUNNY   82  66  57 SE5       30.10S
BIG TROUT LK   CLOUDY    45  45 100 N8        30.05R FOG
PICKLE LAKE    DRIZZLE   46  46 100 N7        30.01R FOG
DRYDEN         CLOUDY    48  48 100 N7        30.04R
KENORA         DRIZZLE   46  46 100 N6        30.07S FOG
$$
                *** MANITOBA***

CITY           SKY/WX    TMP DP  RH WIND       PRES   REMARKS
BRANDON        PTSUNNY   48  37  66 NE6       30.18R
DAUPHIN        CLOUDY    46  45  93 W3        30.18R
ISLAND LAKE    CLOUDY    41  41 100 N7        30.16R FOG
PILOT MOUND      N/A     45  41  87 N6          N/A
THE PAS        MOSUNNY   41  37  87 SE7       30.16R
THOMPSON       PTSUNNY   36  34  93 NE2       30.20R
WINNIPEG       PTSUNNY   46  45  93 N9        30.15R
LYNN LAKE      FOG       37  37 100 SE9       30.12S VSB 3/8
CHURCHILL      PTSUNNY   39  32  75 W6        30.18S
GILLAM         PTSUNNY   37  27  65 N10       30.20R
$$
                ***SASKATCHEWAN***

CITY           SKY/WX    TMP DP  RH WIND       PRES   REMARKS
ESTEVAN        PTSUNNY   41  41 100 E7        30.17R
KINDERSLEY     PTCLDY    37  32  81 S5        30.01S
LLOYDMINSTER   MOCLDY    46  36  66 S10       29.94S
PRINCE ALBERT  MOCLDY    43  37  81 VRB2      30.07S
REGINA         CLOUDY    45  37  76 SE6       30.14R
YORKTON        CLOUDY    45  41  87 S7        30.15R
N. BATTLEFORD  CLOUDY    43  36  75 SE8       30.03R
LA RONGE       PTCLDY    46  41  81 SE14      30.02S
SASKATOON      PTCLDY    41  37  87 S7        30.07S
SWIFT CURRENT    N/A     39  36  87 S13       30.04R
$$
NOTE: THESE ARE AUTOMATED STATIONS WITH LIMITED QUALITY CONTROL
      "FAIR" INDICATES FEW OR NO CLOUDS BELOW 12,000 FEET WITH NO
      SIGNIFICANT WEATHER AND/OR OBSTRUCTIONS TO VISIBILITY.
      SKY/WX - SKY CONDITION AND SIGNIFICANT WEATHER.
      TMP - AIR TEMPERATURE.    DP   - DEWPOINT TEMPERATURE.
      RH  - RELATIVE HUMIDITY.  PRES - PRESSURE.
      HX  - HEAT INDEX.         WCI  - WIND CHILL INDEX.
$




USA.gov is the U.S. government's official web portal to all federal, state and local government web resources and services.